Wind_Speed
5 6 7 8 8 9 10 8 7 7 6 3 3 5 6 7 6 4 2 1 4 6 7 8 10 10 10 10 10 9 9 9 9 9 9 9 9 7 4 3 5 5 5 5 9 12 17 17 18
3 6 8 8 7 8 8 9 10 9 8 6 4 5 6 8 8 6 5 1 2 5 7 9 10 11 12 11 10 8 9 9 9 10 8 8 7 7 4 2 3 2 2 4 2 8 18 20 19
4 6 6 6 3 3 6 8 10 11 10 7 5 4 4 4 6 8 7 4 2 3 6 9 10 10 11 11 10 8 9 9 9 10 9 7 5 4 3 2 2 3 2 2 4 2 14 24 20
4 4 4 3 1 3 4 7 9 10 10 9 7 4 3 3 5 7 8 6 4 2 4 6 9 10 10 11 9 9 10 11 10 10 9 7 6 4 4 3 4 5 5 3 2 5 8 12 13
4 2 3 2 5 6 2 7 10 12 11 9 9 8 5 3 5 7 8 8 4 0 2 5 8 10 10 10 9 8 10 11 11 10 10 8 6 5 5 5 7 8 8 7 5 6 9 9 8
4 2 4 5 6 3 1 3 7 12 14 12 10 9 7 5 4 6 8 8 4 2 1 3 7 8 10 10 8 7 10 13 13 11 10 9 7 7 7 7 7 9 9 9 8 7 8 9 10
5 2 1 1 2 1 2 5 10 12 14 13 12 11 8 5 5 6 9 9 5 3 3 4 6 8 9 9 7 7 10 12 13 12 10 9 8 7 8 10 10 10 11 10 10 10 10 10 10
7 5 3 4 4 4 7 10 13 15 13 12 11 10 8 6 6 6 7 8 6 4 3 3 5 7 9 8 8 8 10 12 13 13 10 9 8 8 9 10 11 12 13 13 12 12 14 14 13
9 7 6 6 5 7 9 13 15 16 13 10 10 9 9 7 6 6 7 7 6 6 4 3 5 6 9 9 8 9 11 13 14 13 12 11 9 9 11 12 12 12 13 13 11 11 13 15 16
10 9 8 8 6 8 10 12 16 16 11 8 9 9 9 8 5 5 7 7 6 5 4 5 5 7 9 8 9 10 11 13 15 13 13 13 12 12 13 14 13 12 11 10 10 11 13 15 16
12 10 9 9 8 9 12 13 16 13 9 9 10 9 8 7 4 4 6 6 6 6 6 7 7 6 8 8 9 10 12 14 15 15 17 18 16 14 15 15 14 13 12 11 12 12 13 13 14
13 13 12 11 11 12 14 14 15 12 11 12 12 10 7 6 6 5 6 7 7 7 8 11 10 7 9 10 10 9 11 14 15 18 20 20 17 14 16 16 15 13 12 13 13 14 14 13 13
17 16 15 14 14 15 17 16 17 15 14 17 17 13 9 7 8 9 10 11 10 10 11 12 11 9 11 13 13 12 12 16 18 20 21 18 17 16 17 18 15 14 12 13 13 13 14 13 11
21 20 19 18 17 17 19 18 19 20 18 18 17 14 11 9 10 11 13 14 14 15 14 14 14 12 13 15 15 15 15 18 20 21 17 18 18 18 17 17 16 14 15 16 15 15 14 13 12
26 25 24 23 22 19 20 18 19 21 17 16 15 14 15 12 11 12 14 16 18 19 19 18 18 17 17 18 18 17 19 19 19 21 18 17 17 17 16 16 16 15 16 15 14 14 15 13 12
30 29 28 27 25 22 20 17 19 20 18 16 15 17 18 16 15 15 16 18 20 21 22 21 20 20 19 20 21 20 22 22 20 20 20 17 17 18 16 15 14 16 16 15 14 13 14 13 12
35 32 32 31 29 25 22 19 20 20 17 13 14 17 19 19 19 19 18 20 21 22 22 22 21 22 22 22 21 20 24 26 22 20 22 21 19 19 17 15 15 16 17 17 14 13 14 13 14
39 39 38 35 32 28 26 23 22 22 18 14 14 17 19 21 21 20 20 21 21 21 22 22 23 23 24 23 22 22 25 21 24 20 23 24 23 20 17 17 16 18 18 18 16 14 15 14 14
43 43 41 38 36 33 31 28 25 24 21 17 17 19 22 23 22 21 20 22 21 21 22 24 24 25 26 24 23 23 23 18 24 21 22 24 23 21 18 13 15 17 18 18 17 15 16 16 15
40 41 39 34 32 31 31 30 29 27 25 22 20 21 24 25 24 22 22 22 22 23 25 26 26 26 26 26 26 25 24 23 25 24 22 23 23 23 24 15 14 16 17 16 17 18 18 18 17
24 27 32 31 27 25 26 25 27 25 26 26 24 22 23 25 25 24 23 21 24 26 28 29 29 29 29 28 29 28 27 28 29 31 30 28 26 25 23 25 18 14 17 19 19 20 20 19 18
23 24 27 28 28 30 30 28 27 26 26 26 25 23 22 25 25 25 25 24 26 27 28 29 30 30 31 31 31 30 30 31 32 33 33 31 29 28 26 28 22 18 19 22 23 23 23 22 21
25 24 25 30 31 33 30 30 25 26 30 28 26 25 25 25 26 27 27 26 27 28 29 31 32 32 32 32 33 33 33 33 33 31 31 31 28 27 25 22 22 22 26 25 25 25 25 23 24
26 27 28 29 27 33 25 25 23 20 21 22 25 25 25 26 27 27 26 26 27 29 31 32 32 31 31 33 34 34 35 34 32 28 26 25 23 24 26 25 25 24 30 31 29 26 26 26 25
28 28 25 25 29 28 25 26 24 23 22 23 24 25 25 25 25 24 24 26 27 30 31 31 31 31 31 31 31 31 32 32 29 25 22 20 19 21 26 30 30 28 31 33 31 31 33 31 29
27 26 25 27 30 31 27 25 25 27 27 24 22 23 22 22 21 22 24 26 29 31 32 32 31 31 30 30 28 27 26 26 24 20 17 16 15 14 19 25 30 31 29 26 29 33 37 37 35
28 27 28 30 33 32 30 27 25 26 26 21 18 18 18 18 20 23 25 27 29 30 29 30 29 30 29 27 27 25 23 21 20 17 15 14 12 12 13 16 21 25 27 27 34 31 36 39 37
25 27 28 28 31 31 31 33 27 22 22 20 19 19 19 22 24 27 29 29 29 28 28 26 24 27 27 26 25 25 22 21 19 16 14 14 13 13 14 16 18 20 21 19 28 35 36 41 41
23 24 26 27 29 30 28 29 27 20 19 19 21 24 26 27 26 27 27 26 26 26 27 24 25 27 27 24 23 22 21 19 18 16 13 12 13 14 15 16 16 17 20 19 20 30 37 41 44
23 25 26 28 27 28 28 26 22 17 17 20 23 27 29 29 27 28 25 23 24 25 26 26 28 28 27 23 21 20 19 19 19 18 15 13 13 15 17 18 18 17 18 17 15 12 22 39 41
Wind_Direction
49 59 83 89 69 47 29 15 9 4 349 312 255 245 246 238 231 259 272 46 43 46 46 33 20 7 4 0 355 4 356 337 327 337 349 355 357 4 351 296 288 300 337 42 138 179 182 189 200
88 81 98 95 75 41 20 10 3 1 349 331 290 265 261 252 243 233 221 217 70 48 32 24 13 9 10 2 356 3 360 344 323 323 335 348 355 7 22 333 298 275 318 46 106 206 211 210 208
125 89 98 117 88 10 357 359 354 345 338 333 318 290 272 247 220 208 216 201 158 52 18 13 8 4 7 355 354 356 359 349 326 319 325 332 339 343 358 336 287 257 261 20 54 137 198 211 203
129 86 88 111 211 302 338 7 5 345 324 326 331 320 289 234 209 206 200 194 175 85 1 1 0 358 1 352 349 355 357 353 337 324 322 325 326 311 308 280 249 234 230 222 142 136 166 179 167
141 111 45 21 318 281 325 22 12 355 342 332 328 328 316 267 217 207 197 197 189 147 2 7 360 1 1 347 341 356 355 351 338 326 319 318 315 305 312 287 253 239 231 229 215 191 179 174 161
170 138 88 79 54 94 153 4 357 353 347 344 338 327 306 279 224 196 196 199 209 239 307 343 354 2 7 349 339 346 347 347 340 327 321 315 309 301 292 283 265 247 237 231 231 221 206 195 192
197 194 146 260 330 343 273 300 325 334 334 337 343 334 313 290 244 206 203 210 227 237 265 312 347 354 0 350 333 332 334 338 341 332 322 313 300 291 280 275 270 255 237 230 230 229 222 214 209
209 222 250 289 313 313 327 324 315 319 319 331 340 337 319 289 251 222 213 215 224 227 262 316 339 340 343 340 318 316 321 326 329 328 319 308 297 287 274 275 271 261 251 238 232 231 230 228 222
217 226 242 266 291 305 314 326 314 305 312 326 334 336 324 302 262 229 219 211 217 228 261 305 323 336 343 339 328 316 318 315 311 314 316 310 306 291 276 275 272 264 253 242 235 229 230 229 225
224 238 248 262 279 301 314 327 324 298 290 315 333 336 333 302 272 229 206 208 209 229 266 280 311 340 352 337 330 326 312 312 306 300 306 307 305 295 281 276 273 267 253 236 223 219 221 224 228
226 240 252 268 280 291 307 324 329 304 280 306 327 332 333 309 282 214 204 218 227 243 271 283 285 317 347 341 327 319 303 302 302 292 294 301 301 296 284 276 271 265 254 229 215 210 215 223 229
237 248 256 268 278 291 301 312 316 302 285 295 312 323 317 300 277 245 230 244 256 264 283 289 277 286 327 335 319 316 302 298 297 294 293 295 296 293 286 276 268 263 250 236 223 224 224 227 232
250 257 262 270 280 289 297 302 303 294 286 282 289 304 307 279 263 258 254 255 261 268 275 276 276 291 309 321 320 318 306 302 304 298 292 282 287 292 284 277 266 255 244 239 231 236 230 229 240
253 260 264 269 275 284 291 298 300 299 296 288 277 288 300 282 268 266 269 274 277 279 284 285 280 287 295 304 309 316 314 306 297 289 280 277 285 290 280 271 261 249 237 239 234 231 227 231 243
255 260 265 270 273 276 281 289 293 300 299 289 276 285 298 293 278 275 277 282 285 287 291 291 284 287 295 300 304 314 314 310 300 283 275 274 291 299 283 268 260 248 242 242 239 234 229 231 239
252 258 262 265 267 266 267 274 283 288 295 283 265 273 288 294 289 284 283 284 286 289 290 290 286 284 291 297 302 313 314 306 304 273 268 268 293 305 286 265 260 252 245 244 243 235 225 224 228
249 252 254 256 259 260 259 265 271 275 279 269 257 262 273 282 288 288 290 291 290 287 286 287 288 286 288 290 293 303 310 296 299 275 272 275 280 292 278 260 265 254 249 247 240 228 220 220 225
245 247 249 252 256 257 255 258 260 263 264 256 258 265 269 275 283 289 295 296 292 286 284 286 287 284 283 282 285 291 305 301 294 282 276 282 280 279 269 256 262 252 246 246 239 226 223 223 228
244 247 248 246 249 250 252 253 256 259 256 256 261 265 268 270 279 285 294 296 291 287 286 290 289 285 281 282 286 286 294 296 286 279 276 280 278 265 259 237 245 249 241 241 241 234 227 224 225
243 247 246 245 244 244 250 254 252 250 249 252 261 261 263 271 276 285 291 291 289 287 286 285 284 284 282 284 288 289 287 284 282 280 277 278 275 262 248 224 230 248 246 238 234 229 227 225 222
249 253 244 239 241 248 249 251 253 251 248 257 258 257 262 270 278 287 289 287 284 284 286 287 288 288 289 288 289 287 281 277 279 279 278 277 270 259 251 245 236 246 253 249 238 231 225 224 222
269 260 251 250 250 251 250 254 254 247 249 258 254 255 263 271 278 284 284 283 281 282 283 285 288 290 289 287 286 285 283 280 280 280 279 275 263 256 255 246 235 242 250 254 244 236 230 227 228
263 263 255 259 258 256 255 263 262 247 252 252 254 259 262 268 278 282 281 279 279 281 285 289 291 290 287 284 284 283 281 281 283 283 280 273 260 254 257 253 247 255 252 249 244 235 234 231 228
253 260 261 251 250 254 252 260 263 242 240 248 256 259 262 268 273 275 275 276 282 287 291 291 290 287 285 284 284 282 281 280 282 282 276 271 264 255 254 253 252 252 255 255 245 236 235 234 232
257 265 273 259 256 264 260 262 258 252 257 262 258 258 262 266 268 270 275 282 288 291 292 292 289 289 287 286 286 283 280 278 276 275 270 265 260 255 252 248 250 248 253 254 240 238 237 234 230
252 253 252 263 274 279 275 271 263 261 265 264 256 252 252 257 265 273 278 285 291 293 294 293 292 292 293 290 290 292 285 276 271 267 262 256 251 250 253 251 250 250 249 245 244 248 235 229 228
254 250 250 257 266 267 266 263 259 260 260 261 260 259 261 267 271 274 280 286 288 291 292 293 292 289 293 296 289 295 286 275 269 261 254 246 246 252 258 258 253 250 245 246 238 243 236 225 227
252 249 255 262 262 262 261 256 254 252 258 257 259 264 267 270 273 279 283 284 285 288 290 291 292 292 296 302 296 291 286 276 269 259 251 247 250 253 256 261 258 253 262 262 247 242 243 229 220
256 254 253 253 257 259 259 258 255 257 257 258 262 267 272 274 274 276 279 282 284 285 288 291 294 301 301 300 300 293 284 277 268 262 255 249 247 244 247 255 261 261 264 264 264 246 241 227 222
254 254 254 253 250 247 252 256 260 262 260 263 266 266 269 273 280 281 281 283 282 287 296 294 291 298 301 300 299 296 285 277 269 264 261 262 263 258 254 255 261 266 266 261 259 242 239 224 222
Height
5905 5905 5905 5907 5908 5908 5907 5907 5905 5904 5904 5904 5903 5902 5902 5901 5902 5905 5903 5902 5901 5901 5900 5898 5896 5894 5893 5890 5887 5886 5884 5883 5881 5880 5880 5878 5877 5876 5875 5874 5874 5874 5872 5870 5868 5870 5873 5876 5880
5906 5906 5907 5908 5909 5908 5909 5907 5905 5904 5904 5903 5902 5901 5900 5899 5900 5900 5901 5901 5901 5900 5899 5898 5896 5894 5892 5889 5887 5885 5884 5883 5881 5880 5879 5878 5877 5876 5875 5874 5873 5873 5872 5871 5870 5870 5872 5875 5878
5906 5907 5908 5908 5908 5908 5908 5907 5905 5904 5903 5902 5901 5900 5899 5898 5898 5899 5900 5901 5901 5900 5899 5898 5896 5894 5892 5889 5888 5886 5884 5883 5882 5880 5879 5878 5877 5875 5874 5874 5873 5871 5871 5871 5872 5871 5872 5875 5877
5907 5908 5909 5909 5908 5907 5907 5906 5904 5904 5903 5901 5900 5899 5898 5897 5897 5898 5898 5899 5900 5899 5898 5897 5896 5893 5891 5889 5887 5886 5885 5883 5881 5880 5878 5877 5876 5876 5874 5874 5873 5871 5872 5872 5874 5874 5875 5877 5878
5906 5908 5908 5908 5907 5905 5905 5904 5904 5903 5902 5901 5899 5898 5897 5896 5896 5896 5897 5898 5898 5898 5897 5896 5894 5892 5891 5889 5887 5885 5884 5883 5880 5878 5877 5875 5874 5875 5874 5873 5872 5871 5872 5873 5874 5875 5877 5878 5879
5906 5907 5908 5907 5906 5904 5904 5903 5902 5901 5899 5899 5898 5896 5895 5895 5895 5895 5896 5896 5896 5897 5896 5895 5894 5892 5890 5888 5887 5885 5883 5881 5879 5877 5876 5874 5873 5873 5872 5871 5870 5870 5872 5872 5873 5874 5876 5878 5879
5905 5905 5906 5906 5905 5903 5902 5901 5900 5899 5899 5898 5896 5895 5894 5894 5894 5893 5894 5894 5895 5895 5894 5894 5893 5891 5889 5888 5886 5884 5883 5881 5879 5876 5874 5873 5872 5871 5870 5870 5869 5869 5870 5871 5872 5873 5875 5876 5877
5902 5904 5903 5903 5903 5902 5901 5899 5898 5897 5897 5896 5894 5894 5893 5893 5892 5892 5892 5893 5893 5894 5893 5892 5891 5890 5888 5887 5885 5883 5882 5880 5877 5874 5872 5870 5869 5869 5868 5867 5867 5866 5867 5867 5869 5870 5872 5874 5875
5900 5902 5901 5901 5902 5902 5900 5899 5897 5896 5895 5894 5892 5891 5891 5890 5889 5889 5890 5891 5892 5892 5891 5891 5889 5889 5887 5885 5883 5881 5880 5878 5875 5872 5870 5869 5867 5866 5865 5865 5864 5864 5864 5865 5866 5868 5869 5871 5873
5898 5899 5900 5900 5900 5900 5899 5898 5895 5893 5894 5893 5892 5890 5890 5889 5887 5887 5888 5890 5890 5889 5889 5888 5888 5887 5886 5884 5882 5879 5877 5875 5873 5870 5868 5867 5865 5864 5863 5862 5861 5862 5862 5863 5864 5864 5866 5868 5870
5896 5896 5897 5897 5897 5897 5896 5895 5894 5892 5892 5892 5891 5889 5888 5887 5886 5886 5887 5888 5888 5888 5886 5886 5886 5886 5884 5883 5880 5877 5875 5873 5870 5868 5867 5865 5863 5861 5860 5859 5858 5859 5860 5861 5861 5861 5863 5865 5867
5893 5894 5895 5895 5895 5894 5894 5893 5892 5891 5891 5890 5890 5888 5886 5885 5885 5885 5885 5886 5886 5886 5885 5884 5884 5883 5882 5880 5878 5875 5873 5871 5868 5866 5864 5862 5860 5858 5857 5856 5856 5857 5858 5858 5858 5859 5860 5862 5864
5891 5892 5893 5893 5893 5893 5892 5891 5890 5889 5890 5889 5888 5887 5885 5883 5884 5883 5883 5883 5883 5882 5882 5882 5881 5880 5879 5877 5875 5872 5870 5868 5865 5863 5861 5859 5857 5855 5854 5854 5853 5854 5856 5856 5856 5857 5858 5859 5860
5888 5889 5889 5890 5891 5890 5889 5889 5888 5886 5887 5885 5885 5885 5884 5882 5881 5881 5881 5880 5879 5879 5879 5879 5878 5877 5875 5873 5871 5868 5866 5864 5862 5859 5858 5857 5854 5852 5851 5850 5850 5851 5853 5854 5854 5855 5856 5857 5857
5884 5885 5885 5885 5885 5886 5886 5886 5885 5883 5883 5882 5882 5882 5882 5881 5879 5879 5878 5878 5877 5876 5876 5876 5875 5873 5872 5869 5867 5864 5863 5861 5859 5857 5855 5853 5852 5849 5847 5847 5848 5849 5850 5852 5852 5853 5853 5854 5855
5878 5880 5880 5880 5880 5880 5883 5882 5880 5879 5879 5878 5878 5879 5879 5879 5878 5876 5876 5875 5875 5874 5873 5872 5871 5870 5868 5865 5863 5860 5858 5856 5855 5854 5852 5850 5849 5847 5845 5845 5845 5847 5848 5849 5850 5851 5851 5852 5853
5872 5873 5873 5873 5874 5875 5876 5877 5875 5874 5875 5874 5874 5874 5875 5876 5874 5873 5873 5872 5872 5871 5870 5868 5867 5865 5864 5862 5859 5856 5854 5852 5851 5850 5849 5847 5846 5845 5841 5841 5843 5843 5845 5847 5848 5848 5848 5849 5851
5862 5863 5864 5866 5867 5869 5871 5872 5871 5870 5870 5870 5870 5869 5869 5871 5870 5869 5869 5868 5867 5866 5865 5863 5862 5860 5859 5858 5855 5853 5850 5847 5846 5846 5845 5844 5842 5840 5838 5837 5839 5839 5842 5843 5845 5846 5846 5847 5848
5852 5854 5857 5858 5859 5863 5863 5865 5867 5865 5865 5865 5865 5865 5865 5865 5865 5864 5864 5863 5863 5862 5860 5859 5858 5857 5855 5853 5851 5849 5847 5844 5843 5843 5841 5840 5839 5837 5835 5834 5834 5835 5837 5839 5841 5843 5844 5845 5846
5845 5846 5849 5850 5851 5854 5856 5857 5859 5860 5861 5859 5859 5860 5860 5860 5860 5859 5859 5859 5858 5856 5855 5854 5853 5852 5850 5848 5847 5845 5843 5840 5839 5837 5836 5834 5834 5833 5833 5832 5831 5833 5835 5836 5837 5839 5841 5842 5843
5839 5840 5841 5842 5845 5847 5849 5852 5852 5854 5855 5854 5855 5855 5855 5855 5855 5855 5854 5854 5852 5850 5849 5848 5846 5846 5845 5843 5841 5839 5838 5836 5835 5832 5830 5829 5828 5828 5827 5830 5829 5829 5831 5832 5834 5836 5837 5838 5840
5834 5834 5834 5836 5839 5839 5840 5843 5845 5847 5848 5849 5849 5850 5851 5851 5851 5850 5849 5848 5847 5845 5843 5842 5840 5839 5838 5837 5835 5833 5832 5830 5830 5828 5825 5823 5822 5820 5822 5825 5826 5825 5825 5827 5830 5832 5834 5835 5837
5829 5829 5829 5830 5830 5832 5834 5834 5839 5840 5841 5842 5842 5843 5844 5845 5845 5844 5843 5842 5841 5839 5838 5836 5835 5833 5832 5830 5828 5826 5824 5822 5821 5819 5817 5816 5814 5814 5815 5818 5819 5819 5820 5822 5825 5827 5829 5831 5832
5823 5823 5823 5822 5823 5825 5827 5828 5831 5832 5833 5835 5836 5836 5838 5838 5838 5838 5837 5836 5834 5833 5831 5830 5829 5828 5826 5824 5821 5818 5817 5814 5812 5810 5809 5808 5807 5809 5810 5812 5811 5813 5814 5816 5818 5820 5822 5825 5827
5819 5820 5819 5818 5817 5818 5819 5822 5825 5824 5827 5829 5830 5830 5831 5832 5832 5832 5831 5830 5828 5827 5826 5825 5823 5822 5820 5817 5814 5812 5809 5807 5804 5803 5803 5801 5801 5802 5804 5805 5805 5806 5807 5808 5808 5811 5815 5818 5821
5812 5814 5816 5815 5814 5812 5813 5816 5818 5819 5820 5822 5824 5824 5825 5826 5827 5826 5825 5824 5823 5821 5819 5817 5816 5815 5812 5809 5807 5804 5802 5800 5799 5797 5797 5796 5796 5795 5796 5797 5798 5799 5798 5798 5799 5801 5805 5809 5814
5804 5805 5808 5810 5807 5808 5810 5812 5815 5814 5815 5817 5818 5818 5819 5820 5820 5819 5819 5818 5816 5814 5812 5811 5809 5807 5805 5802 5800 5797 5796 5795 5794 5793 5792 5792 5792 5791 5792 5792 5792 5792 5792 5791 5791 5793 5796 5801 5806
5798 5798 5802 5802 5801 5802 5803 5804 5808 5808 5810 5812 5812 5812 5812 5813 5813 5813 5813 5812 5810 5807 5805 5805 5804 5801 5798 5795 5793 5791 5790 5789 5789 5789 5788 5788 5787 5787 5788 5788 5786 5787 5786 5785 5784 5784 5788 5794 5798
5789 5791 5792 5792 5794 5797 5797 5801 5800 5803 5805 5806 5806 5805 5804 5804 5805 5805 5805 5805 5803 5801 5800 5799 5797 5795 5792 5790 5787 5786 5785 5784 5784 5784 5784 5784 5783 5783 5783 5783 5782 5782 5781 5780 5779 5777 5780 5784 5790
5780 5781 5784 5786 5787 5789 5790 5795 5794 5797 5799 5799 5799 5799 5798 5798 5798 5798 5798 5798 5797 5796 5795 5792 5791 5789 5787 5785 5782 5781 5779 5779 5779 5779 5780 5779 5779 5779 5779 5779 5778 5777 5777 5776 5775 5773 5774 5779 5784